Regional Weather Roundup
Issued by NWS

Home | Current Version | Previous Version | Graphics & Text | Print | Product List | Glossary On
Versions: 1 2 3 4 5 6 7 8 9 10 11 12 13 14 15 16 17 18 19 20 21 22 23 24 25 26 27 28 29 30 31 32 33 34 35 36 37 38 39 40 41 42 43 44 45 46 47 48 49 50
000
ASUS43 KLMK 270710
RWRKY
SDFRWRKY ALL
KENTUCKY REGIONAL WEATHER ROUNDUP
NATIONAL WEATHER SERVICE LOUISVILLE KY
200 AM EST THU NOV 27 2014

NOTE "FAIR" INDICATES FEW OR NO CLOUDS BELOW 12,000 FEET
WITH NO SIGNIFICANT WEATHER AND/OR OBSTRUCTIONS TO VISIBILITY.

KYZ001>023-026-027-061>063-070>075-270800-
WESTERN AND SOUTH CENTRAL KENTUCKY

CITY           SKY/WX    TMP DP  RH WIND       PRES   REMARKS
PADUCAH        CLOUDY    38  34  85 NW9G21    30.15R WCI  31
HENDERSON      CLOUDY    34  30  86 NW7       30.14R WCI  28
OWENSBORO      LGT SNOW  33  33 100 MISG      30.12R FOG
HOPKINSVILLE   CLOUDY    37  37  99 NW12      30.11R WCI  30
BOWLING GREEN  CLOUDY    38  34  85 W9G16     30.07R WCI  31
GLASGOW        LGT RAIN N/A N/A N/A CALM      30.05R
$$

KYZ024-025-028>034-038-045-046-053-270800-
NORTH CENTRAL KENTUCKY

CITY           SKY/WX    TMP DP  RH WIND       PRES   REMARKS
LOUISVILLE/SDF LGT SNOW  34  31  88 N7        30.08R FOG     WCI  28
LOUISVILLE/LOU LGT SNOW  33  31  92 N5        30.08R FOG     WCI  29
FORT KNOX      LGT SNOW  32  32 100 NW6       30.06R FOG     WCI  26
$$

KYZ035>037-039>044-047>052-055>060-089>105-270800-
NORTHEAST KENTUCKY

CITY           SKY/WX    TMP DP  RH WIND       PRES   REMARKS
LEXINGTON      CLOUDY    33  29  85 N7        30.03R WCI  27
COVINGTON      CLOUDY    28  21  75 N6        30.06R WCI  22
FRANKFORT      CLOUDY    34  28  79 N3        30.04R
$$

KYZ054-064>069-076>088-106>120-270800-
SOUTHEAST KENTUCKY

CITY           SKY/WX    TMP DP  RH WIND       PRES   REMARKS
JACKSON        CLOUDY    36  27  69 NE3       29.98F
LONDON         LGT RAIN  36  32  85 N5        30.00R WCI  32
SOMERSET       LGT SNOW  32  32 100 CALM      30.03S
MIDDLESBORO    NOT AVBL
MONTICELLO     LGT SNOW  35  34  96 CALM      30.05R FOG
$$




USA.gov is the U.S. government's official web portal to all federal, state and local government web resources and services.